Waterloo, IA

11:26 PM CST on January 21, 2018 (GMT -0600)
Waterloo Municipal

Weather History for KALO - March, 2013

Change the Weather History Date:

Saturday, March 9, 2013

  Actual Average Record
Temperature  
Mean Temperature 36 °F 33 °F  
Max Temperature 37 °F 42 °F 63 °F (1990)
Min Temperature 34 °F 24 °F -12 °F (1984)
Degree Days  
Heating Degree Days 29 32  
Month to date heating degree days 399 307  
Since 1 July heating degree days 5609 5726  
Cooling Degree Days 0 0  
Month to date cooling degree days 0 0  
Year to date cooling degree days 0 0  
Moisture  
Dew Point 34 °F    
Average Humidity 91    
Maximum Humidity 100    
Minimum Humidity 82    
Precipitation  
Precipitation 0.76 in 0.05 in 0.76 in (2013)
Month to date precipitation 1.14 0.49  
Year to date precipitation 4.22 2.31  
Snow  
Snow 0.00 in 0.20 in 3.00 in (1960)
Month to date snowfall 6.9 1.7  
Since 1 July snowfall 44.0 30.6  
Snow Depth 4.00 in    
Sea Level Pressure  
Sea Level Pressure 29.84 in    
Wind  
Wind Speed 12 mph (SE)    
Max Wind Speed 21 mph    
Max Gust Speed 29 mph    
Visibility 3 miles    
Events Fog , Rain , Snow    
T = Trace of Precipitation, MM = Missing Value Source: NWS Daily Summary

Daily Weather History Graph

Daily Weather History Graph

Search for Another Location

Airport or City:

Trip Planner

Search our weather history database for the weather conditions in past years. The results will help you decide how hot, cold, wet, or windy it might be!

Date:

Astronomy

Mar. 09, 2013 Rise Set
Actual Time 6:31 AM CST 6:09 PM CST
Civil Twilight 6:03 AM CST 6:37 PM CST
Nautical Twilight 5:30 AM CST 7:10 PM CST
Astronomical Twilight 4:57 AM CST 7:43 PM CST
Moon 4:57 AM CST (3/9) 4:10 PM CST (3/9)
Length of Visible Light 12h 34m
Length of Day
11h 37m
Waning Crescent, 5% of the Moon is Illuminated
Mar 9
Waning Crescent
Mar 11
New
Mar 19
First Quarter
Mar 27
Full
Apr 2
Last Quarter

Hourly Weather History & Observations

Time (CST) Temp. Windchill Dew Point Humidity Pressure Visibility Wind Dir Wind Speed Gust Speed Precip Events Conditions
12:54 AM 35.1 °F 24.8 °F 30.9 °F 85% 30.10 in 7.0 mi SE 17.3 mph - 0.00 in Rain Light Rain
1:54 AM 35.1 °F 26.9 °F 30.9 °F 85% 30.08 in 6.0 mi SE 11.5 mph - 0.00 in   Overcast
2:54 AM 35.6 °F 29.2 °F 30.2 °F 81% 30.04 in 7.0 mi SE 8.1 mph - N/A   Overcast
3:54 AM 35.1 °F 27.4 °F 32.0 °F 89% 30.06 in 4.0 mi SSE 10.4 mph 16.1 mph 0.03 in Rain Rain
4:54 AM 35.1 °F 25.2 °F 33.1 °F 92% 30.03 in 3.0 mi SE 16.1 mph - 0.17 in Rain Rain
5:06 AM 35.6 °F 25.2 °F 33.8 °F 93% 29.99 in 3.0 mi SE 18.4 mph - 0.04 in Rain Rain
5:21 AM 35.6 °F 26.6 °F 33.8 °F 93% 29.99 in 3.0 mi SSE 13.8 mph 23.0 mph 0.07 in Rain Light Rain
5:47 AM 35.6 °F 24.8 °F 33.8 °F 93% 29.97 in 2.5 mi SE 19.6 mph 25.3 mph 0.14 in Rain Rain
5:54 AM 35.1 °F 25.2 °F 33.1 °F 92% 30.00 in 3.0 mi SE 16.1 mph 25.3 mph 0.14 in Rain Light Rain
6:54 AM 35.1 °F 24.5 °F 34.0 °F 96% 29.98 in 4.0 mi SSE 18.4 mph - 0.01 in Rain Light Rain
7:08 AM 35.6 °F 25.9 °F 33.8 °F 93% 29.95 in 2.5 mi SSE 16.1 mph 24.2 mph 0.01 in Rain Light Rain
7:20 AM 35.6 °F 25.9 °F 33.8 °F 93% 29.95 in 3.0 mi SSE 16.1 mph - 0.01 in   Overcast
7:54 AM 35.1 °F 23.8 °F 34.0 °F 96% 29.96 in 3.0 mi SSE 20.7 mph 26.5 mph 0.01 in   Overcast
8:01 AM 35.6 °F 25.2 °F 33.8 °F 93% 29.94 in 2.0 mi SSE 18.4 mph 26.5 mph N/A   Overcast
8:51 AM 35.6 °F 26.2 °F 33.8 °F 93% 29.91 in 3.0 mi SSE 15.0 mph 25.3 mph 0.00 in   Overcast
8:54 AM 35.1 °F 24.8 °F 34.0 °F 96% 29.94 in 3.0 mi SSE 17.3 mph 23.0 mph 0.00 in   Overcast
9:19 AM 35.6 °F 26.6 °F 33.8 °F 93% 29.92 in 2.0 mi SSE 13.8 mph 23.0 mph 0.00 in   Overcast
9:26 AM 35.6 °F 26.6 °F 33.8 °F 93% 29.92 in 1.2 mi SSE 13.8 mph 23.0 mph 0.00 in Snow Light Snow
9:54 AM 35.1 °F 26.4 °F 34.0 °F 96% 29.92 in 2.5 mi SSE 12.7 mph 21.9 mph 0.01 in Rain Light Rain
10:15 AM 35.6 °F 25.9 °F 33.8 °F 93% 29.89 in 1.2 mi SSE 16.1 mph 23.0 mph 0.00 in   Overcast
10:54 AM 35.1 °F 24.8 °F 34.0 °F 96% 29.88 in 1.8 mi SSE 17.3 mph 26.5 mph 0.01 in Rain Light Rain
11:02 AM 35.6 °F 25.9 °F 33.8 °F 93% 29.85 in 2.0 mi SSE 16.1 mph - 0.00 in Rain Light Rain
11:54 AM 36.0 °F 26.3 °F 35.1 °F 97% 29.86 in 2.5 mi SSE 16.1 mph 26.5 mph 0.02 in Rain Light Rain
12:11 PM 35.6 °F 25.9 °F 35.6 °F 100% 29.84 in 4.0 mi SSE 16.1 mph - 0.02 in Rain Light Rain
12:54 PM 36.0 °F 25.6 °F 35.1 °F 97% 29.83 in 3.0 mi SSE 18.4 mph 24.2 mph 0.07 in Rain Rain
1:54 PM 36.0 °F 26.3 °F 35.1 °F 97% 29.78 in 4.0 mi SSE 16.1 mph 21.9 mph 0.08 in Rain Light Rain
2:54 PM 36.0 °F 27.1 °F 35.1 °F 97% 29.76 in 5.0 mi SSE 13.8 mph - 0.04 in Rain Light Rain
3:05 PM 35.6 °F 26.2 °F 35.6 °F 100% 29.73 in 2.0 mi SSE 15.0 mph 23.0 mph 0.03 in Rain Rain
3:47 PM 35.6 °F 26.6 °F 35.6 °F 100% 29.73 in 1.8 mi SSE 13.8 mph - 0.08 in Rain Light Rain
3:54 PM 36.0 °F 28.0 °F 35.1 °F 97% 29.76 in 2.0 mi SSE 11.5 mph - 0.09 in Rain Light Rain
4:15 PM 35.6 °F 27.1 °F 35.6 °F 100% 29.75 in 3.0 mi South 12.7 mph - 0.01 in   Overcast
4:39 PM 35.6 °F 27.1 °F 35.6 °F 100% 29.74 in 2.5 mi SSE 12.7 mph - 0.02 in Rain Light Rain
4:54 PM 36.0 °F 28.5 °F 35.1 °F 97% 29.75 in 2.5 mi SE 10.4 mph - 0.02 in Rain Light Rain
5:07 PM 35.6 °F 27.5 °F 35.6 °F 100% 29.74 in 3.0 mi South 11.5 mph - 0.00 in Rain Light Rain
5:54 PM 36.0 °F 28.5 °F 35.1 °F 97% 29.77 in 3.0 mi SSE 10.4 mph - 0.02 in Rain Light Rain
6:51 PM 35.6 °F 28.6 °F 35.6 °F 100% 29.74 in 2.0 mi SSE 9.2 mph - 0.01 in   Overcast
6:54 PM 36.0 °F 29.0 °F 35.1 °F 97% 29.76 in 2.0 mi SSE 9.2 mph - 0.01 in   Overcast
7:14 PM 35.6 °F 28.6 °F 35.6 °F 100% 29.73 in 4.0 mi SE 9.2 mph - 0.01 in Rain Light Rain
7:33 PM 35.6 °F 28.6 °F 35.6 °F 100% 29.74 in 4.0 mi SSE 9.2 mph - 0.01 in   Overcast
7:54 PM 36.0 °F 29.0 °F 35.1 °F 97% 29.76 in 4.0 mi SSE 9.2 mph - 0.01 in   Overcast
8:38 PM 37.4 °F 29.8 °F 35.6 °F 93% 29.72 in 4.0 mi SE 11.5 mph - 0.00 in Rain Light Rain
8:54 PM 37.0 °F 30.4 °F 36.0 °F 96% 29.74 in 3.0 mi SE 9.2 mph - 0.00 in Rain Light Rain
9:51 PM 35.6 °F - 35.6 °F 100% 29.74 in 2.0 mi Calm Calm - 0.01 in   Overcast
9:54 PM 36.0 °F - 35.1 °F 97% 29.76 in 2.0 mi Calm Calm - 0.01 in   Overcast
10:06 PM 33.8 °F - 33.8 °F 100% 29.72 in 1.0 mi Calm Calm - N/A   Overcast
10:13 PM 35.6 °F 31.7 °F 33.8 °F 93% 29.72 in 0.5 mi NE 4.6 mph - N/A Fog Fog
10:24 PM 33.8 °F 30.8 °F 33.8 °F 100% 29.73 in 1.0 mi North 3.5 mph - N/A   Overcast
10:46 PM 33.8 °F - 33.8 °F 100% 29.72 in 0.8 mi Calm Calm - N/A   Overcast
10:54 PM 34.0 °F - 34.0 °F 100% 29.75 in 0.8 mi Calm Calm - N/A   Overcast
11:26 PM 33.8 °F 27.7 °F 33.8 °F 100% 29.71 in 0.2 mi ENE 6.9 mph - N/A Fog Fog
11:37 PM 33.8 °F 27.7 °F 33.8 °F 100% 29.70 in 0.5 mi ENE 6.9 mph - 0.00 in Fog , Rain Light Rain
11:54 PM 34.0 °F 28.0 °F 34.0 °F 100% 29.72 in 0.5 mi East 6.9 mph - 0.01 in Fog , Rain Light Rain